Location: Hilton Head Island
(32.2163°N, 80.7526°W)
Time: 07:59:51
(UTC-04:00)

Vanguard 1 - Pass Details

Date: 17 February 2026
Orbit: 653 x 3818 km, 34.2° (Epoch: 17 March)

Event Time Altitude Azimuth Distance (km) Brightness Sun altitude
Rises 21:21:22 0° 289° (WNW) 6,738 15.2 -40.7°
Reaches altitude 10° 21:25:20 10° 286° (WNW) 6,035 14.7 -41.5°
Maximum altitude 21:45:51 63° 212° (SSW) 4,075 12.9 -45.7°
Enters shadow 21:50:53 56° 172° (S) 4,259 12.9 -46.7°
Drops below altitude 10° 22:07:43 10° 136° (SE) 6,348 - -50.1°
Sets 22:12:05 0° 133° (SE) 7,083 - -50.9°
